When you browse on this site, cookies collect data to enhance your experience and personalize the content and advertising you see.
Visit our Privacy Policy to learn more. By continuing to use the site, you agree to this use of cookies and data.
  • In Slovakia
  • List of Countries
  • For 7 days
  • Water Temperature
  • Satellite Maps
  • Weather Map
  • Weather Widgets
  • user-avatar
    Login

    Hourly Weather Andora

    Today, 26 April, Friday

    Time Temperature Precipitation Wind Pressure Humidity
    00:00 -1°C° 0 mm 1 mps 618 mmHg 81%
    01:00 -1°C° 0 mm 1 mps 618 mmHg 81%
    02:00 -1°C° 0 mm 1 mps 619 mmHg 81%
    03:00 -1°C° 0 mm 1 mps 619 mmHg 81%
    04:00 -1°C° 0.2 mm 1 mps 620 mmHg 82%
    05:00 0°C° 0.2 mm 1 mps 621 mmHg 83%
    06:00 +1°C° 0 mm 2 mps 621 mmHg 84%
    07:00 +2°C° 0 mm 2 mps 623 mmHg 73%
    08:00 +4°C° 0 mm 2 mps 624 mmHg 62%
    09:00 +6°C° 0 mm 2 mps 625 mmHg 52%
    10:00 +6°C° 0.3 mm 2 mps 625 mmHg 56%
    11:00 +6°C° 0.3 mm 2 mps 625 mmHg 60%
    12:00 +6°C° 0.3 mm 2 mps 625 mmHg 64%
    13:00 +6°C° 0.3 mm 2 mps 625 mmHg 66%
    14:00 +6°C° 0.3 mm 2 mps 626 mmHg 68%
    15:00 +6°C° 0.3 mm 2 mps 626 mmHg 70%
    16:00 +5°C° 0.1 mm 2 mps 626 mmHg 74%
    17:00 +5°C° 0.1 mm 2 mps 626 mmHg 78%
    18:00 +4°C° 0.1 mm 2 mps 626 mmHg 82%
    19:00 +3°C° 0 mm 2 mps 626 mmHg 86%
    20:00 +2°C° 0 mm 2 mps 626 mmHg 89%
    21:00 +1°C° 0 mm 2 mps 626 mmHg 93%
    22:00 -1°C° 0 mm 2 mps 626 mmHg 93%
    23:00 -1°C° 0 mm 2 mps 626 mmHg 92%

    Tomorrow, 27 April, Saturday

    Time Temperature Precipitation Wind Pressure Humidity
    00:00 -2°C° 0 mm 2 mps 626 mmHg 92%
    01:00 -2°C° 0 mm 2 mps 626 mmHg 87%
    02:00 -2°C° 0 mm 2 mps 625 mmHg 81%
    03:00 -3°C° 0 mm 2 mps 625 mmHg 75%
    04:00 -2°C° 0 mm 2 mps 626 mmHg 74%
    05:00 -1°C° 0 mm 2 mps 626 mmHg 73%
    06:00 +1°C° 0 mm 2 mps 627 mmHg 72%
    07:00 +4°C° 0 mm 2 mps 628 mmHg 70%
    08:00 +6°C° 0 mm 2 mps 629 mmHg 68%
    09:00 +9°C° 0 mm 2 mps 630 mmHg 66%
    10:00 +9°C° 0 mm 2 mps 630 mmHg 65%
    11:00 +9°C° 0 mm 2 mps 630 mmHg 64%
    12:00 +10°C° 0 mm 2 mps 630 mmHg 63%
    13:00 +9°C° 0.1 mm 2 mps 629 mmHg 67%
    14:00 +9°C° 0.1 mm 2 mps 629 mmHg 70%
    15:00 +9°C° 0.1 mm 1 mps 629 mmHg 73%
    16:00 +9°C° 0.1 mm 1 mps 628 mmHg 77%
    17:00 +8°C° 0.1 mm 1 mps 628 mmHg 82%
    18:00 +7°C° 0.1 mm 1 mps 628 mmHg 86%
    19:00 +7°C° 0 mm 1 mps 628 mmHg 88%
    20:00 +6°C° 0 mm 1 mps 628 mmHg 90%
    21:00 +4°C° 0 mm 2 mps 628 mmHg 92%
    22:00 +3°C° 0 mm 2 mps 628 mmHg 92%
    23:00 +3°C° 0 mm 2 mps 627 mmHg 92%

    Day after tomorrow, 28 April, Sunday

    Time Temperature Precipitation Wind Pressure Humidity
    00:00 +2°C° 0 mm 2 mps 627 mmHg 93%
    01:00 +1°C° 0 mm 2 mps 627 mmHg 92%
    02:00 +1°C° 0 mm 2 mps 626 mmHg 91%
    03:00 -1°C° 0 mm 2 mps 626 mmHg 90%
    04:00 -1°C° 0 mm 2 mps 626 mmHg 88%
    05:00 +1°C° 0 mm 2 mps 626 mmHg 86%
    06:00 +1°C° 0 mm 2 mps 626 mmHg 84%
    07:00 +4°C° 0 mm 2 mps 627 mmHg 72%
    08:00 +6°C° 0 mm 2 mps 628 mmHg 61%
    09:00 +10°C° 0 mm 1 mps 629 mmHg 50%
    10:00 +10°C° 0 mm 2 mps 629 mmHg 47%
    11:00 +12°C° 0 mm 2 mps 629 mmHg 45%
    12:00 +14°C° 0 mm 2 mps 630 mmHg 43%
    13:00 +13°C° 0 mm 2 mps 629 mmHg 46%
    14:00 +13°C° 0 mm 2 mps 629 mmHg 49%
    15:00 +13°C° 0 mm 2 mps 628 mmHg 52%
    16:00 +10°C° 0 mm 2 mps 628 mmHg 60%
    17:00 +9°C° 0 mm 2 mps 627 mmHg 69%
    18:00 +7°C° 0 mm 2 mps 626 mmHg 77%
    19:00 +6°C° 0 mm 2 mps 626 mmHg 83%
    20:00 +5°C° 0 mm 1 mps 626 mmHg 88%
    21:00 +4°C° 0 mm 1 mps 626 mmHg 93%
    22:00 +3°C° 0 mm 1 mps 625 mmHg 90%
    23:00 +3°C° 0 mm 1 mps 625 mmHg 86%

    29 April, Monday

    Time Temperature Precipitation Wind Pressure Humidity
    00:00 +1°C° 0 mm 2 mps 625 mmHg 83%
    01:00 +1°C° 0 mm 2 mps 624 mmHg 79%
    02:00 +1°C° 0 mm 2 mps 624 mmHg 75%
    03:00 +1°C° 0 mm 2 mps 624 mmHg 72%
    04:00 +2°C° 0 mm 1 mps 624 mmHg 70%
    05:00 +3°C° 0 mm 1 mps 624 mmHg 69%
    06:00 +4°C° 0 mm 1 mps 624 mmHg 68%
    07:00 +6°C° 0 mm 1 mps 625 mmHg 61%
    08:00 +9°C° 0 mm 1 mps 626 mmHg 54%
    09:00 +11°C° 0 mm 1 mps 627 mmHg 47%
    10:00 +12°C° 0 mm 1 mps 627 mmHg 46%
    11:00 +13°C° 0 mm 2 mps 627 mmHg 45%
    12:00 +14°C° 0 mm 2 mps 627 mmHg 44%
    13:00 +13°C° 0 mm 2 mps 627 mmHg 48%
    14:00 +13°C° 0 mm 2 mps 626 mmHg 53%
    15:00 +12°C° 0 mm 2 mps 626 mmHg 57%
    16:00 +11°C° 0.1 mm 1 mps 625 mmHg 65%
    17:00 +10°C° 0.1 mm 1 mps 624 mmHg 74%
    18:00 +9°C° 0.1 mm 1 mps 624 mmHg 82%
    19:00 +8°C° 0.1 mm 1 mps 624 mmHg 86%
    20:00 +7°C° 0.1 mm 1 mps 624 mmHg 90%
    21:00 +6°C° 0.1 mm 0 mps 624 mmHg 95%
    22:00 +5°C° 0 mm 0 mps 624 mmHg 95%
    23:00 +5°C° 0 mm 0 mps 624 mmHg 96%

    30 April, Tuesday

    Time Temperature Precipitation Wind Pressure Humidity
    00:00 +5°C° 0 mm 0 mps 624 mmHg 96%
    01:00 +5°C° 0.1 mm 0 mps 623 mmHg 96%
    02:00 +5°C° 0.1 mm 0 mps 623 mmHg 96%
    03:00 +5°C° 0.1 mm 0 mps 623 mmHg 96%
    04:00 +5°C° 0.1 mm 0 mps 623 mmHg 95%
    05:00 +6°C° 0.1 mm 1 mps 623 mmHg 94%
    06:00 +6°C° 0.1 mm 1 mps 623 mmHg 93%
    07:00 +7°C° 0 mm 1 mps 623 mmHg 84%
    08:00 +7°C° 0 mm 2 mps 624 mmHg 75%
    09:00 +8°C° 0 mm 2 mps 624 mmHg 66%
    10:00 +8°C° 0.2 mm 3 mps 624 mmHg 62%
    11:00 +9°C° 0.2 mm 3 mps 624 mmHg 57%
    12:00 +9°C° 0.2 mm 3 mps 624 mmHg 52%
    13:00 +8°C° 0.1 mm 4 mps 624 mmHg 48%
    14:00 +8°C° 0.1 mm 4 mps 624 mmHg 44%
    15:00 +8°C° 0.1 mm 4 mps 623 mmHg 40%
    16:00 +7°C° 0 mm 4 mps 623 mmHg 46%
    17:00 +7°C° 0 mm 3 mps 623 mmHg 52%
    18:00 +5°C° 0 mm 3 mps 623 mmHg 59%
    19:00 +3°C° 0 mm 3 mps 623 mmHg 67%
    20:00 +3°C° 0 mm 2 mps 623 mmHg 76%
    21:00 +2°C° 0 mm 2 mps 622 mmHg 84%
    22:00 +1°C° 0 mm 2 mps 622 mmHg 83%
    23:00 +1°C° 0 mm 2 mps 622 mmHg 81%

    1 May, Wednesday

    Time Temperature Precipitation Wind Pressure Humidity
    00:00 +1°C° 0 mm 2 mps 622 mmHg 79%
    01:00 +1°C° 0 mm 2 mps 622 mmHg 80%
    02:00 +1°C° 0 mm 2 mps 622 mmHg 80%
    03:00 +1°C° 0 mm 2 mps 621 mmHg 81%
    04:00 +2°C° 0 mm 2 mps 622 mmHg 77%
    05:00 +3°C° 0 mm 2 mps 622 mmHg 73%
    06:00 +3°C° 0 mm 2 mps 622 mmHg 70%
    07:00 +6°C° 0 mm 2 mps 623 mmHg 60%
    08:00 +10°C° 0 mm 1 mps 624 mmHg 50%
    09:00 +12°C° 0 mm 1 mps 625 mmHg 40%
    10:00 +13°C° 0 mm 1 mps 625 mmHg 38%
    11:00 +15°C° 0 mm 1 mps 626 mmHg 37%
    12:00 +16°C° 0 mm 1 mps 626 mmHg 35%
    13:00 +16°C° 0 mm 1 mps 626 mmHg 39%
    14:00 +15°C° 0 mm 1 mps 625 mmHg 43%
    15:00 +14°C° 0 mm 1 mps 624 mmHg 46%
    16:00 +13°C° 0 mm 1 mps 624 mmHg 54%
    17:00 +12°C° 0 mm 1 mps 623 mmHg 61%
    18:00 +9°C° 0 mm 0 mps 623 mmHg 68%
    19:00 +9°C° 0 mm 1 mps 623 mmHg 73%
    20:00 +8°C° 0 mm 1 mps 623 mmHg 79%
    21:00 +7°C° 0 mm 1 mps 623 mmHg 84%
    22:00 +6°C° 0 mm 1 mps 622 mmHg 87%
    23:00 +6°C° 0 mm 1 mps 622 mmHg 90%
    Show more